User: anonymous   Login
Location: *
(90.0000°N, 180.0000°W)
Time: 00:22:17
(UTC+01:00)
Language:

Cosmos 1825 - Orbit

View from above orbital plane
View from above orbital plane
View from above satellite
View from above satellite

Ground track
Ground track

The orbit data is extracted from the following two-line orbital elements,

1 17566U 87024A   16037.52545297  .00002572  00000-0  12762-3 0  9999
2 17566  82.5034  62.1033 0005408 128.2720 231.9001 15.17275540578499
Epoch (UTC): 06 February 2016 12:36:39
Eccentricity: 0.0005408
inclination: 82.5034°
perigee height: 510 km
apogee height: 518 km
right ascension of ascending node: 62.1033°
argument of perigee: 128.2720°
revolutions per day: 15.17275540
mean anomaly at epoch: 231.9001°
orbit number at epoch: 57849

The dashed part of the orbit path shows where the satellite is in the earth's shadow,  

DLR